Home   Weather   Solothurn   Past weeks
Flag for Switzerland

Past Weather in Solothurn, Solothurn, Switzerland — Yesterday and Last 2 Weeks

Now
52 °F

Cool.


Feels Like: 51 °F
Forecast: 65 / 47 °F
Wind: 5 mph from Southwest

Location: Grenchen

Current Time: Oct 23, 2019 at 11:46:06 pm

Latest Report: Oct 23, 2019 at 11:00 pm


Visibility: N/A

Pressure: 29.87 "Hg

Humidity: 99%

Dew Point: 52 °F

Location of SolothurnLocation

Past Weather in Solothurn — Graph

°F

Solothurn Temperature Yesterday

Maximum temperature yesterday: 58 °F (at 4:00 pm)
Minimum temperature yesterday: 53 °F (at 3:00 am)
Average temperature yesterday: 55 °F

High & Low Weather Summary for the Past Weeks

 TemperatureHumidityPressure
High71 °F (Oct 13, 5:00 pm)100% (Oct 11, 10:00 am)30.29 "Hg (Oct 11, 10:00 am)
Low38 °F (Oct 11, 6:00 am)55% (Oct 11, 4:00 pm)29.77 "Hg (Oct 20, 4:00 pm)
Average53 °F91%30.02 "Hg
* Reported Oct 8 10:00 pm — Oct 23 10:00 pm, Solothurn. Weather by CustomWeather, © 2019

Note: Actual official high and low records may vary slightly from our data, if they occured in-between our weather recording intervals... More about our weather records

Advertising

Solothurn Weather History for the Previous 24 Hours

Scroll right to see more
 ConditionsComfort  
Time TempWeatherWind HumidityBarometerVisibility
10:00 pm
Wed, Oct 23
52 °FCool.2 mph99%29.86 "HgN/A
9:00 pm53 °FCool.1 mph99%29.87 "HgN/A
8:00 pm55 °FCool.1 mph97%29.87 "HgN/A
7:00 pm55 °FCool.3 mph96%29.88 "HgN/A
6:00 pm58 °FCool.1 mph90%29.88 "HgN/A
5:00 pm58 °FCool.2 mph87%29.88 "HgN/A
4:00 pm59 °FCool.1 mph84%29.90 "HgN/A
3:00 pm59 °FCool.2 mph84%29.92 "HgN/A
2:00 pm58 °FCool.6 mph84%29.93 "HgN/A
1:00 pm57 °FCool.6 mph85%29.97 "HgN/A
12:00 pm57 °FCool.3 mph84%29.99 "HgN/A
11:00 am56 °FCool.2 mph86%30.01 "HgN/A
10:00 am55 °FCool.No wind90%30.01 "HgN/A
9:00 am55 °FCool.2 mph93%30.01 "HgN/A
8:00 am54 °FCool.1 mph94%30.02 "HgN/A
7:00 am54 °FCool.3 mph95%30.03 "HgN/A
6:00 am55 °FCool.2 mph93%30.05 "HgN/A
5:00 am56 °FCool.1 mph92%30.06 "HgN/A
4:00 am56 °FCool.3 mph91%30.06 "HgN/A
3:00 am56 °FCool.3 mph93%30.07 "HgN/A
2:00 am56 °FCool.3 mph95%30.08 "HgN/A
1:00 am56 °FCool.3 mph94%30.11 "HgN/A
12:00 am56 °FCool.3 mph93%30.13 "HgN/A
11:00 pm
Tue, Oct 22
56 °FCool.3 mph91%30.15 "HgN/A
Weather by CustomWeather, © 2019

See weather overview